{"data":{"norad_id":65662,"intl_designator":"2025-211L","name":"STARLINK-35176","alt_names":[],"object_type":"PAYLOAD","status":"ACTIVE","operator":null,"country":"US","launch_date":"2025-09-19","launch_site_code":"AFWTR","launch_vehicle":null,"mission":null,"orbit_class":"UNKNOWN","rcs_meters":null,"size_class":null,"mass_kg":null,"dimensions":null,"purposes":["comms"],"wikipedia_slug":null,"has_3d_model":false,"image_url":null,"decayed_at":null,"tle_current":{"epoch":"2026-05-25T02:59:12.069600Z","epoch_age_seconds":60504,"freshness":"FRESH","line1":"1 65662U 25211L   26145.12444525  .00003272  00000+0  23067-3 0  9995","line2":"2 65662  97.4471 189.0509 0002195 140.8501 219.2885 15.05654816 38543","mean_motion":15.05654816,"eccentricity":0.0002195,"inclination_deg":97.4471,"raan_deg":189.0509,"arg_perigee_deg":140.8501,"mean_anomaly_deg":219.2885,"bstar":0.00023067,"rev_number":3854,"period_min":95.639451001497,"perigee_km":547.97576594872,"apogee_km":551.01699700319,"semimajor_km":6927.633381476,"source":"CELESTRAK","updated_at":"2026-05-25T13:38:20.889930Z"}}}